Location: Ku?niki
(51.4449°N, 17.8974°E)
Time: 16:06:39
(UTC+00:00)

OBJECT-B - Pass Details

Date: 18 September 2020
Orbit: 421 x 433 km, 97.0° (Epoch: 09 October)

Event Time Altitude Azimuth Distance (km) Brightness Sun altitude
Exits shadow 17:28:13 - 95° (E) 1,688 3.1 -6.0°
Reaches altitude 10° 17:29:04 10° 83° (E) 1,517 3.0 -6.1°
Maximum altitude 17:30:17 12° 60° (ENE) 1,416 3.0 -6.3°
Drops below altitude 10° 17:31:31 10° 38° (NE) 1,523 3.3 -6.5°
Sets 17:34:36 0° 5° (N) 2,398 4.7 -6.9°
